7 * 24
多渠道服务支持
ORBCOMM FM34 是一颗由 ORBCOMM 公司运营的低轨(LEO)卫星,属于其全球物联网通信网络的一部分。该卫星主要用于提供远程机器对机器(M2M)通信服务,支持物流、运输、能源和环境监测等行业。FM34 运行在 L 波段,具备低功耗、广覆盖的特性,能够在全球范围内实现可靠的双向数据传输。作为 ORBCOMM 机队的一员,FM34 有助于增强其在物联网和远程监控领域的服务能力。
| 数据来源 | 国际轨道数据 |
| 星历时间: | 2025-10-25T11:03:30+0800 18小时前 查看轨道信息 |
| 半长轴: | 7145.205km |
| 偏心率: | 0.0004524 |
| 轨道倾角: | 45.038° |
| 近地点辐角 | 293.220° |
| 升交点赤经 | 201.493° |
| 平近点角 | 66.817° |
| 近地点: | 763.837km |
| 远地点: | 770.303km |
| 周期: | 100.180分钟 |
| 每日圈数: | 14.374103 |